Location: Kershaw
(34.5481°N, 80.5823°W)
Time: 12:33:29
(UTC+00:00)

Tiros 1 - All Passes

Search period start: 05 October 2022 00:00
Search period end: 15 October 2022 00:00
Orbit: 629 x 663 km, 48.4° (Epoch: 05 October)

Date Brightness Start Highest point End Pass type
(mag) Time Alt. Az. Time Alt. Az. Time Alt. Az.
05 Oct - 02:07:19 10° S 02:11:22 27° SE 02:15:25 10° ENE night (unlit)
05 Oct - 03:48:40 10° WSW 03:53:20 52° NNW 03:58:02 10° NE night (unlit)
05 Oct - 05:33:00 10° WNW 05:36:22 18° NNW 05:39:44 10° NNE night (unlit)
05 Oct - 07:17:05 10° NNW 07:20:01 16° N 07:22:57 10° NE visible
05 Oct - 08:59:00 10° NW 09:03:20 34° NNE 09:07:37 10° E visible
05 Oct - 10:41:04 10° WNW 10:45:38 48° SW 10:50:08 10° SSE visible
06 Oct - 02:32:02 10° SW 02:36:47 66° SE 02:41:33 10° ENE night (unlit)
06 Oct - 04:15:06 10° W 04:19:16 29° NNW 04:23:26 10° NE night (unlit)
06 Oct - 05:59:51 10° NW 06:02:41 15° N 06:05:30 10° NNE night (unlit)
06 Oct - 07:42:44 10° NNW 07:46:18 20° NNE 07:49:51 10° ENE visible
06 Oct - 09:24:26 10° NW 09:29:11 66° NE 09:33:50 10° ESE visible
06 Oct - 11:07:34 10° W 11:10:58 20° SW 11:14:20 10° S daylight
07 Oct - 01:16:38 10° S 01:20:30 25° SE 01:24:23 10° ENE visible
07 Oct - 02:57:42 10° WSW 03:02:25 56° NW 03:07:10 10° NE night (unlit)
07 Oct - 04:41:56 10° WNW 04:45:23 19° NNW 04:48:51 10° NNE night (unlit)
07 Oct - 06:26:09 10° NNW 06:29:02 16° N 06:31:56 10° NE night (unlit)
07 Oct - 08:08:07 10° NW 08:12:24 31° NNE 08:16:37 10° E visible
07 Oct - 09:50:07 10° WNW 09:54:45 54° SW 09:59:20 10° SE visible
08 Oct - 01:41:11 10° SW 01:45:53 60° SE 01:50:37 10° ENE visible
08 Oct - 03:24:04 10° W 03:28:18 30° NNW 03:32:34 10° NE night (unlit)
08 Oct - 05:08:48 10° NW 05:11:41 16° N 05:14:33 10° NNE night (unlit)
08 Oct - 06:51:50 10° NNW 06:55:19 20° NNE 06:58:48 10° ENE night (unlit)
08 Oct - 08:33:32 10° NW 08:38:15 60° NE 08:42:55 10° ESE visible
08 Oct - 10:16:27 10° W 10:20:07 22° SW 10:23:44 10° S visible
09 Oct - 00:25:59 10° S 00:29:38 22° SE 00:33:19 10° E visible
09 Oct - 02:06:45 10° WSW 02:11:29 62° NW 02:16:16 10° NE visible
09 Oct - 03:50:52 10° WNW 03:54:24 20° NNW 03:57:57 10° NNE night (unlit)
09 Oct - 05:35:11 10° NNW 05:38:03 15° N 05:40:54 10° NE night (unlit)
09 Oct - 07:17:14 10° NW 07:21:26 30° NNE 07:25:37 10° E night (unlit)
09 Oct - 08:59:10 10° WNW 09:03:52 61° SW 09:08:30 10° SE visible
10 Oct - 00:50:21 10° SSW 00:54:59 53° SE 00:59:40 10° ENE visible
10 Oct - 02:33:01 10° W 02:37:20 32° NNW 02:41:40 10° NE visible
10 Oct - 04:17:45 10° NW 04:20:41 16° N 04:23:37 10° NNE night (unlit)
10 Oct - 06:00:55 10° NNW 06:04:21 19° NNE 06:07:45 10° ENE night (unlit)
10 Oct - 07:42:38 10° NW 07:47:20 55° NNE 07:51:58 10° ESE night (unlit)
10 Oct - 09:25:23 10° WNW 09:29:15 25° SW 09:33:04 10° S visible
10 Oct - 23:35:21 10° S 23:38:46 20° SE 23:42:12 10° E visible
11 Oct - 01:15:48 10° WSW 01:20:34 68° NW 01:25:22 10° NE visible
11 Oct - 02:59:47 10° WNW 03:03:25 21° NNW 03:07:04 10° NNE night (unlit)
11 Oct - 04:44:12 10° NNW 04:47:02 15° N 04:49:53 10° NE night (unlit)
11 Oct - 06:26:20 10° NW 06:30:29 28° NNE 06:34:35 10° E night (unlit)
11 Oct - 08:08:13 10° WNW 08:12:58 68° SW 08:17:39 10° SE night (unlit)
11 Oct - 23:59:31 10° SSW 00:04:05 48° SE 00:08:42 10° ENE visible
12 Oct - 01:42:00 10° W 01:46:23 35° NNW 01:50:47 10° NE visible
12 Oct - 03:26:41 10° NW 03:29:40 16° N 03:32:40 10° NNE night (unlit)
12 Oct - 05:10:00 10° NNW 05:13:21 18° NNE 05:16:41 10° ENE night (unlit)
12 Oct - 06:51:43 10° NW 06:56:24 50° NNE 07:01:00 10° ESE night (unlit)
12 Oct - 08:34:19 10° WNW 08:38:22 28° SW 08:42:23 10° S night (unlit)
12 Oct - 22:44:46 10° S 22:47:54 18° SE 22:51:03 10° E daylight
13 Oct - 00:24:52 10° WSW 00:29:38 75° NW 00:34:27 10° NE visible
13 Oct - 02:08:42 10° WNW 02:12:25 22° NNW 02:16:10 10° NNE visible
13 Oct - 03:53:12 10° NW 03:56:01 15° N 03:58:50 10° NE night (unlit)
13 Oct - 05:35:26 10° NW 05:39:30 26° NNE 05:43:32 10° E night (unlit)
13 Oct - 07:17:16 10° NW 07:22:03 76° SW 07:26:47 10° SE night (unlit)
13 Oct - 09:02:27 10° WSW 09:03:34 11° SW 09:04:42 10° SW night (unlit)
13 Oct - 23:08:42 10° SSW 23:13:11 43° SE 23:17:43 10° ENE visible
14 Oct - 00:50:58 10° W 00:55:25 37° NNW 00:59:53 10° NE visible
14 Oct - 02:35:36 10° NW 02:38:39 16° N 02:41:43 10° NNE visible
14 Oct - 04:19:04 10° NNW 04:22:20 18° NNE 04:25:36 10° NE night (unlit)
14 Oct - 06:00:48 10° NW 06:05:26 46° NNE 06:10:02 10° ESE night (unlit)
14 Oct - 07:43:16 10° WNW 07:47:29 31° SW 07:51:39 10° SSE night (unlit)
14 Oct - 21:54:13 10° SSE 21:57:01 16° SE 21:59:49 10° E daylight
14 Oct - 23:33:56 10° SW 23:38:41 82° NW 23:43:30 10° NE visible
